Regional Weather Roundup
Issued by NWS

Home | Current Version | Previous Version | Text Only | Print | Product List | Glossary On
Versions: 1 2 3 4 5 6 7 8 9 10 11 12 13 14 15 16 17 18 19 20 21 22 23 24 25 26 27 28 29 30 31 32 33 34 35 36 37 38 39 40 41 42 43 44 45 46 47 48 49 50
000
ASUS43 KLSX 260307
RWRMO

WEATHER SUMMARY FOR MISSOURI
NATIONAL WEATHER SERVICE SPRINGFIELD MO
900 PM CST SUN JAN 25 2015

NOTE: "FAIR" INDICATES FEW OR NO CLOUDS BELOW 12,000 FEET WITH NO
       SIGNIFICANT WEATHER AND/OR OBSTRUCTIONS TO VISIBILITY.
       CURRENT SKY AND/OR WEATHER CONDITIONS ARE NOT AVAILABLE FOR
       CHILLICOTHE AND FARMINGTON.

MOZ001>031-035>038-043-044-053-054-260400-
...NORTHERN AND WESTERN MISSOURI...

CITY           SKY/WX    TMP DP  RH WIND       PRES   REMARKS
KANSAS CTY INT PTCLDY    32  28  85 N3        30.09R
KANSAS C DTWN  MOCLDY    37  29  72 N6        30.10R
LEE`S SUMMIT   CLOUDY    36  28  73 N13       30.09S WCI  27
ST JOSEPH      PTCLDY    29  26  89 NE5       30.11R WCI  24
CHILLICOTHE      N/A     34  29  82 CALM      30.10S
KIRKSVILLE     CLOUDY    30  27  88 N7        30.06S WCI  23

$$
MOZ066>068-077>081-088>096-101>105-260400-
...SOUTHWEST MISSOURI...

CITY           SKY/WX    TMP DP  RH WIND       PRES   REMARKS
SPRINGFIELD    CLOUDY    36  32  85 NW18G26   30.03R WCI  26
JOPLIN         CLOUDY    39  31  72 N12       30.10S

$$
MOZ032>034-039>042-045>050-055>058-069>072-260400-
...CENTRAL MISSOURI...

CITY           SKY/WX    TMP DP  RH WIND       PRES   REMARKS
COLUMBIA       CLOUDY    32  29  88 NW9       30.03S WCI  24
JEFFERSON CITY CLOUDY    33  28  81 N7        30.05R WCI  27
ROLLA          CLOUDY    31  28  89 NW20G26   29.98R WCI  19
SEDALIA        CLOUDY    34  30  85 N14       30.08R WCI  25
WHITEMAN AFB   CLOUDY    34  30  83 N12       30.07S WCI  26
WARRENSBURG    CLOUDY    34  30  86 N7        30.08F WCI  28
OSAGE BEACH    CLOUDY    34  28  80 N7        30.03F WCI  28

$$
MOZ051-052-059>065-260400-
...EAST CENTRAL MISSOURI...

CITY           SKY/WX    TMP DP  RH WIND       PRES   REMARKS
ST LOUIS INTL  CLOUDY    33  27  78 N13G22    29.98R WCI  24
SPIRIT OF STL  CLOUDY    32  28  86 N14       29.99R WCI  22
ST CHARLES     CLOUDY    32  27  81 N13G24    29.99R WCI  22

$$
MOZ072>076-082>087-097>100-106>115-260400-
...SOUTH CENTRAL AND SOUTHEAST MISSOURI...

CITY           SKY/WX    TMP DP  RH WIND       PRES   REMARKS
CAPE GIRARDEAU CLOUDY    38  36  92 N20G33    29.86R WCI  28
FARMINGTON     CLOUDY    34  30  86 MISG      29.94R
POPLAR BLUFF   CLOUDY    42  35  76 N25G33    29.86R
WEST PLAINS    CLOUDY    35  31  85 NW14G22   29.96R WCI  26

$$



USA.gov is the U.S. government's official web portal to all federal, state and local government web resources and services.